Location: Unspecified
(0.0000°N, 0.0000°E)
Time: 08:34:08
(UTC+00:00)

Explorer 11/Cluster Stage 4 - Visible Passes

Search period start: 31 January 2015 00:00
Search period end: 10 February 2015 00:00
Orbit: 468 x 1277 km, 28.8° (Epoch: 28 January)

Date Brightness Start Highest point End Pass type
(mag) Time Alt. Az. Time Alt. Az. Time Alt. Az.
31 Jan 9.1 19:02:01 10° SSW 19:07:27 20° SSE 19:13:18 10° ESE visible
31 Jan 8.1 20:49:34 10° SW 20:55:52 48° SSW 20:55:52 48° SSW visible
01 Feb 8.9 18:53:49 10° SSW 18:59:45 23° SSE 19:06:09 10° ESE visible
01 Feb 7.8 20:41:36 10° SW 20:48:34 60° SSW 20:48:34 60° SSW visible
02 Feb 8.7 18:45:42 10° SSW 18:52:00 27° SSE 18:58:52 10° E visible
02 Feb 7.5 20:33:42 10° SW 20:41:19 75° SSW 20:41:19 75° SSW visible
03 Feb 8.5 18:37:40 10° SSW 18:44:13 32° SSE 18:51:28 10° E visible
03 Feb 7.4 20:25:53 10° WSW 20:34:03 87° NNW 20:34:07 87° N visible
04 Feb 8.3 18:29:40 10° SW 18:36:24 38° SSE 18:43:58 10° E visible
04 Feb 7.4 20:18:07 10° WSW 20:26:09 74° NNW 20:26:57 69° N visible
05 Feb 8.6 05:38:59 10° N 05:39:47 10° NNE 05:40:44 10° NNE visible
05 Feb 7.7 20:10:27 10° WSW 20:18:16 62° NNW 20:19:49 54° NNE visible
06 Feb 8.4 05:29:41 10° NNW 05:32:20 15° NNE 05:34:50 10° ENE visible
06 Feb 7.9 20:02:51 10° WSW 20:10:24 52° NNW 20:12:42 41° NNE visible
07 Feb 8.1 05:21:08 10° NNW 05:24:51 20° NNE 05:28:08 10° ENE visible
07 Feb 8.2 19:55:21 10° W 20:02:34 43° NNW 20:05:36 32° NNE visible
08 Feb 7.7 05:13:10 11° NNW 05:17:19 27° NNE 05:21:09 10° E visible
08 Feb 8.4 19:47:58 10° W 19:54:46 36° NNW 19:58:31 24° NNE visible
09 Feb 7.4 05:06:03 17° NNW 05:09:45 37° NNE 05:13:59 10° E visible
09 Feb 8.7 19:40:40 10° W 19:47:00 30° NNW 19:51:24 18° NNE visible
